Weather History for Grazzanise, Italy

Change the Weather History Date:

Monday, October 1, 2012

  Actual Average (LIRN) Record (LIRN)
Temperature  
Mean Temperature 72 °F -  
Max Temperature 81 °F 72 °F 84 °F (2012)
Min Temperature 63 °F 53 °F 51 °F (2002)
Cooling Degree Days 7    
Growing Degree Days 22 (Base 50)    
Moisture  
Dew Point 67 °F    
Average Humidity 87    
Maximum Humidity 100    
Minimum Humidity 59    
Precipitation  
Precipitation 0.04 in 0.16 in - ()
Sea Level Pressure  
Sea Level Pressure 30.00 in    
Wind  
Wind Speed 4 mph ()    
Max Wind Speed 12 mph    
Max Gust Speed -    
Visibility 6.3 miles    
Events Thunderstorm    
Averages and records for this station are not official NWS values.
T = Trace of Precipitation, MM = Missing Value Source: Averaged Metar Reports

Daily Weather History Graph

Daily Weather History Graph

Search for Another Location

Airport:

Trip Planner

Search our weather history database for the weather conditions in past years. The results will help you decide how hot, cold, wet, or windy it might be!

Date:

Astronomy

Oct. 01, 2012 Rise Set
Actual Time 7:00 AM CEST 6:45 PM CEST
Civil Twilight 6:33 AM CEST 7:12 PM CEST
Nautical Twilight 6:01 AM CEST 7:44 PM CEST
Astronomical Twilight 5:28 AM CEST 8:16 PM CEST
Moon 7:11 PM CEST (10/1) 8:14 AM CEST (10/1)
Length of Visible Light 12h 39m
Length of Day
11h 44m
Full, 98% of the Moon is Illuminated
Oct 1
Full
Oct 8
Last Quarter
Oct 15
New
Oct 22
First Quarter
Oct 29
Full

Hourly Weather History & Observations

Time (CEST) Temp. Heat Index Dew Point Humidity Pressure Visibility Wind Dir Wind Speed Gust Speed Precip Events Conditions
12:55 AM 62.6 °F - 62.6 °F 100% 29.98 in - North 5.8 mph - N/A   Clear
1:55 AM 64.4 °F - 62.6 °F 94% 29.98 in 6.2 mi East 2.3 mph - N/A   Scattered Clouds
2:00 AM 64 °F - 63 °F 96% 30.00 in 9 mi East 2.3 mph - -   Partly Cloudy
3:55 AM 66.2 °F - 64.4 °F 94% 29.98 in 6.2 mi ENE 2.3 mph - N/A   Mostly Cloudy
4:55 AM 66.2 °F - 66.2 °F 100% 30.01 in 6.2 mi WNW 3.5 mph - N/A   Scattered Clouds
5:00 AM 67 °F - 66 °F 94% 30.01 in 9 mi WNW 3.5 mph - -   Mostly Cloudy
5:55 AM 66.2 °F - 64.4 °F 94% 29.98 in 6.2 mi NNW 3.5 mph - N/A   Mostly Cloudy
6:55 AM 64.4 °F - 62.6 °F 94% 30.01 in 6.2 mi East 2.3 mph - N/A   Mostly Cloudy
7:55 AM 66.2 °F - 62.6 °F 88% 30.04 in 6.2 mi NNW 4.6 mph - N/A   Mostly Cloudy
8:00 AM 66 °F - 63 °F 87% 30.04 in 6 mi NNW 4.6 mph - -   Scattered Clouds
9:55 AM 69.8 °F - 66.2 °F 88% 30.04 in 6.2 mi NE 2.3 mph - N/A   Mostly Cloudy
11:11 AM 71.6 °F - 68.0 °F 88% 30.04 in 5.0 mi East 5.8 mph - N/A Thunderstorm Thunderstorm
12:55 PM 71.6 °F - 69.8 °F 94% 30.04 in 6.2 mi ENE 11.5 mph - N/A   Mostly Cloudy
1:55 PM 75.2 °F - 69.8 °F 83% 30.01 in 6.2 mi NNE 5.8 mph - N/A   Mostly Cloudy
2:00 PM 75 °F - 70 °F 81% 30.03 in 6 mi NNE 5.8 mph - -   Partly Cloudy
2:55 PM 78.8 °F - 71.6 °F 78% 30.01 in 6.2 mi North 6.9 mph - N/A   Mostly Cloudy
3:55 PM 80.6 °F 83.9 °F 69.8 °F 70% 29.98 in 6.2 mi North 6.9 mph - N/A   Scattered Clouds
4:55 PM 80.6 °F 83.9 °F 69.8 °F 70% 29.98 in 6.2 mi North 5.8 mph - N/A   Scattered Clouds
5:00 PM 81 °F - 69 °F 59% 30.00 in 6 mi North 5.8 mph - -   Partly Cloudy
5:55 PM 77.0 °F - 68.0 °F 74% 29.98 in 6.2 mi West 5.8 mph - N/A   Scattered Clouds
6:55 PM 73.4 °F - 66.2 °F 78% 29.98 in 6.2 mi West 3.5 mph - N/A   Scattered Clouds
7:55 PM 73.4 °F - 71.6 °F 94% 29.98 in 6.2 mi West 4.6 mph - N/A   Mostly Cloudy
8:00 PM 73 °F - 71 °F 91% 29.98 in 6 mi West 4.6 mph - -   Mostly Cloudy
8:55 PM 71.6 °F - 69.8 °F 94% 29.98 in 6.2 mi WSW 3.5 mph - N/A   Mostly Cloudy
9:55 PM 69.8 °F - 68.0 °F 94% 29.98 in 6.2 mi SSW 6.9 mph - N/A   Mostly Cloudy
10:55 PM 69.8 °F - 66.2 °F 88% 30.01 in 6.2 mi SW 5.8 mph - N/A   Mostly Cloudy
11:00 PM 69 °F - 66 °F 89% 30.01 in 6 mi SW 5.8 mph - -   Mostly Cloudy
11:55 PM 68.0 °F - 66.2 °F 94% 30.01 in 6.2 mi West 10.4 mph - N/A   Scattered Clouds